Location: G�kdere
(37.0328°N, 30.9000°E)
Time: 04:51:52
(UTC+00:00)

Meteor 1-20 Rocket - Pass Details

Date: 03 March 2021
Orbit: 820 x 891 km, 81.2° (Epoch: 20 April)

Event Time Altitude Azimuth Distance (km) Brightness Sun altitude
Rises 16:22:17 0° 190° (S) 3,338 7.5 -6.7°
Reaches altitude 10° 16:24:40 10° 191° (S) 2,407 6.8 -7.2°
Maximum altitude 16:30:06 81° 278° (W) 835 4.3 -8.3°
Drops below altitude 10° 16:35:36 10° 7° (N) 2,431 6.5 -9.4°
Sets 16:38:02 0° 8° (N) 3,374 7.2 -9.9°
